Location: Plymouth Village
(34.0436°N, 117.1717°W)
Time: 04:20:57
(UTC+00:00)

Cosmos 468 Rocket - Pass Details

Date: 10 September 2024
Orbit: 741 x 776 km, 74.0° (Epoch: 09 October)

Event Time Altitude Azimuth Distance (km) Brightness Sun altitude
Rises 12:19:02 0° 341° (NNW) 3,221 7.2 -15.0°
Reaches altitude 10° 12:21:24 10° 340° (NNW) 2,297 6.4 -14.5°
Maximum altitude 12:26:36 80° 255° (WSW) 782 3.9 -13.5°
Drops below altitude 10° 12:31:51 10° 169° (SSE) 2,305 6.5 -12.5°
Sets 12:34:13 0° 168° (SSE) 3,232 7.2 -12.0°
